San Luis Potosi, Mexico

4:30 PM CDT on July 25, 2017 (GMT -0500)
Ponciano Arriaga International

Weather History for MMSP - November, 2012

Change the Weather History Date:

Wednesday, November 7, 2012

  Actual Average Record
Temperature  
Mean Temperature 56 °F -  
Max Temperature 73 °F 71 °F 82 °F (1996)
Min Temperature 39 °F 45 °F 28 °F (2004)
Degree Days  
Heating Degree Days 9    
Growing Degree Days 6 (Base 50)    
Moisture  
Dew Point 41 °F    
Average Humidity 57    
Maximum Humidity 96    
Minimum Humidity 13    
Precipitation  
Precipitation 0.00 in - - ()
Sea Level Pressure  
Sea Level Pressure 30.22 in    
Wind  
Wind Speed 4 mph ()    
Max Wind Speed 14 mph    
Max Gust Speed -    
Visibility 10.6 miles    
Events      
Averages and records for this station are not official NWS values.
T = Trace of Precipitation, MM = Missing Value Source: Averaged Metar Reports

Daily Weather History Graph

Daily Weather History Graph

Search for Another Location

Airport or City:

Trip Planner

Search our weather history database for the weather conditions in past years. The results will help you decide how hot, cold, wet, or windy it might be!

Date:

Astronomy

Nov. 07, 2012 Rise Set
Actual Time 6:51 AM CST 6:03 PM CST
Civil Twilight 6:28 AM CST 6:26 PM CST
Nautical Twilight 6:01 AM CST 6:53 PM CST
Astronomical Twilight 5:34 AM CST 7:19 PM CST
Moon 12:35 AM CST (11/7) 1:29 PM CST (11/7)
Length of Visible Light 11h 58m
Length of Day
11h 11m
Last Quarter, 43% of the Moon is Illuminated
Nov 7
Last Quarter
Nov 13
New
Nov 20
First Quarter
Nov 28
Full
Dec 6
Last Quarter

Hourly Weather History & Observations

Time (CST) Temp. Dew Point Humidity Pressure Visibility Wind Dir Wind Speed Gust Speed Precip Events Conditions
12:42 AM 51.8 °F 42.8 °F 71% 30.37 in 10.0 mi SE 6.9 mph - N/A   Clear
1:53 AM 53.6 °F 42.8 °F 67% 30.36 in 10.0 mi Calm Calm - N/A   Clear
2:50 AM 45 °F 44 °F 92% 30.20 in 5 mi North 2.2 mph - -  
3:40 AM 48.2 °F 41.0 °F 76% 30.33 in 10.0 mi Calm Calm - N/A   Clear
4:46 AM 44.6 °F 39.2 °F 81% 30.34 in 8.0 mi Calm Calm - N/A   Clear
5:46 AM 42.8 °F 39.2 °F 87% 30.11 in 8.0 mi Calm Calm - N/A   Clear
5:50 AM 43 °F 42 °F 96% 30.20 in 5 mi North 2.2 mph - -  
6:47 AM 42.8 °F 39.2 °F 87% 30.34 in 8.0 mi Calm Calm - N/A   Partly Cloudy
7:46 AM 44.6 °F 37.4 °F 76% 30.37 in 10.0 mi Calm Calm - N/A   Clear
8:48 AM 51.8 °F 39.2 °F 62% 30.14 in 12.0 mi Calm Calm - N/A   Clear
8:50 AM 51 °F 36 °F 45% 30.27 in 9 mi East 4.5 mph - -   Haze
9:45 AM 57.2 °F 44.6 °F 63% 30.40 in 15.0 mi Calm Calm - N/A   Clear
10:53 AM 62.6 °F 42.8 °F 48% 30.38 in 15.0 mi Calm Calm - N/A   Clear
11:42 AM 66.2 °F 37.4 °F 35% 30.04 in 15.0 mi East 11.5 mph - N/A   Clear
11:45 AM 65 °F 37 °F 24% 30.25 in 7 mi SSW 2.2 mph - -   Haze
12:49 PM 68.0 °F 35.6 °F 30% 30.31 in 15.0 mi ENE 13.8 mph - N/A   Clear
1:42 PM 69.8 °F 39.2 °F 33% 30.29 in 15.0 mi ENE 13.8 mph - N/A   Clear
2:45 PM 70 °F 30 °F 13% 30.08 in 12 mi East 4.5 mph - -  
2:47 PM 69.8 °F 39.2 °F 33% 29.93 in 15.0 mi East 11.5 mph - N/A   Partly Cloudy
3:53 PM 69.8 °F 39.2 °F 33% 30.25 in 15.0 mi ESE 9.2 mph - N/A   Partly Cloudy
4:56 PM 66.2 °F 37.4 °F 35% 30.27 in 15.0 mi East 11.5 mph - N/A   Partly Cloudy
5:45 PM 62 °F 45 °F 42% 30.02 in 9 mi ESE 4.5 mph - -   Haze
5:54 PM 66.2 °F 37.4 °F 35% 30.01 in 15.0 mi East 11.5 mph - N/A   Partly Cloudy
6:47 PM 60.8 °F 37.4 °F 42% 30.29 in 12.0 mi East 5.8 mph - N/A   Partly Cloudy
7:41 PM 59.0 °F 41.0 °F 51% 30.31 in 10.0 mi East 4.6 mph - N/A   Partly Cloudy
8:46 PM 57.2 °F 41.0 °F 55% 30.08 in 9.0 mi Calm Calm - N/A   Clear
8:50 PM 58 °F 51 °F 70% 30.08 in 5 mi South 4.5 mph - -  
9:48 PM 55.4 °F 44.6 °F 67% 30.35 in 10.0 mi SSE 9.2 mph - N/A   Clear
10:44 PM 55.4 °F 44.6 °F 67% 30.35 in 10.0 mi SSE 9.2 mph - N/A   Clear
11:49 PM 51.8 °F 42.8 °F 71% 30.03 in 10.0 mi SE 6.9 mph - N/A   Clear
11:50 PM 49 °F 46 °F 87% 30.10 in 5 mi East 2.2 mph - -